Hourly Weather Agruhino

Today, 7 March, Sunday

Time Temperature Precipitation Wind Pressure Humidity
00:00 -9°C° 0.3 mm 6 mps 735 mmHg 90%
01:00 -9°C° 0.3 mm 6 mps 734 mmHg 91%
02:00 -8°C° 0 mm 6 mps 732 mmHg 92%
03:00 -8°C° 0.4 mm 6 mps 731 mmHg 92%
04:00 -6°C° 0.4 mm 6 mps 729 mmHg 93%
05:00 -6°C° 0.4 mm 5 mps 728 mmHg 94%
06:00 -6°C° 0.6 mm 6 mps 727 mmHg 92%
07:00 -7°C° 0.6 mm 7 mps 727 mmHg 90%
08:00 -5°C° 0 mm 6 mps 727 mmHg 89%
09:00 -6°C° 0.1 mm 6 mps 727 mmHg 77%
10:00 -6°C° 0.1 mm 6 mps 727 mmHg 64%
11:00 -8°C° 0.1 mm 6 mps 727 mmHg 52%
12:00 -8°C° 0 mm 6 mps 727 mmHg 53%
13:00 -8°C° 0 mm 6 mps 727 mmHg 55%
14:00 -8°C° 0 mm 6 mps 727 mmHg 54%
15:00 -7°C° 0.1 mm 5 mps 727 mmHg 59%
16:00 -8°C° 0.1 mm 4 mps 727 mmHg 64%
17:00 -8°C° 0.1 mm 3 mps 727 mmHg 69%
18:00 -9°C° 0 mm 3 mps 727 mmHg 74%
19:00 -9°C° 0 mm 3 mps 727 mmHg 79%
20:00 -10°C° 0 mm 3 mps 727 mmHg 84%
21:00 -10°C° 0.1 mm 3 mps 727 mmHg 86%
22:00 -11°C° 0.1 mm 4 mps 727 mmHg 89%
23:00 -11°C° 0.1 mm 4 mps 727 mmHg 91%

Tomorrow, 8 March, Monday

Time Temperature Precipitation Wind Pressure Humidity
00:00 -11°C° 0.3 mm 4 mps 728 mmHg 92%
01:00 -11°C° 0.3 mm 4 mps 728 mmHg 92%
02:00 -10°C° 0.3 mm 3 mps 729 mmHg 93%
03:00 -12°C° 0 mm 4 mps 729 mmHg 93%
04:00 -14°C° 0 mm 4 mps 730 mmHg 92%
05:00 -15°C° 0 mm 4 mps 731 mmHg 92%
06:00 -14°C° 0 mm 4 mps 732 mmHg 91%
07:00 -14°C° 0 mm 4 mps 733 mmHg 89%
08:00 -12°C° 0 mm 4 mps 734 mmHg 88%
09:00 -12°C° 0 mm 4 mps 735 mmHg 85%
10:00 -12°C° 0 mm 4 mps 736 mmHg 83%
11:00 -11°C° 0 mm 4 mps 736 mmHg 80%
12:00 -11°C° 0 mm 4 mps 737 mmHg 80%
13:00 -11°C° 0 mm 4 mps 738 mmHg 80%
14:00 -11°C° 0 mm 4 mps 739 mmHg 80%
15:00 -12°C° 0 mm 4 mps 739 mmHg 83%
16:00 -12°C° 0 mm 4 mps 740 mmHg 85%
17:00 -13°C° 0 mm 3 mps 741 mmHg 87%
18:00 -14°C° 0 mm 3 mps 741 mmHg 89%
19:00 -14°C° 0 mm 3 mps 742 mmHg 91%
20:00 -15°C° 0 mm 3 mps 743 mmHg 92%
21:00 -15°C° 0 mm 2 mps 743 mmHg 93%
22:00 -16°C° 0 mm 2 mps 743 mmHg 94%
23:00 -17°C° 0 mm 2 mps 744 mmHg 95%

Day after tomorrow, 9 March, Tuesday

Time Temperature Precipitation Wind Pressure Humidity
00:00 -18°C° 0 mm 2 mps 744 mmHg 96%
01:00 -19°C° 0 mm 2 mps 745 mmHg 96%
02:00 -20°C° 0 mm 2 mps 745 mmHg 97%
03:00 -20°C° 0 mm 2 mps 745 mmHg 97%
04:00 -21°C° 0 mm 2 mps 746 mmHg 97%
05:00 -23°C° 0 mm 2 mps 746 mmHg 97%
06:00 -20°C° 0 mm 1 mps 746 mmHg 95%
07:00 -19°C° 0 mm 1 mps 747 mmHg 93%
08:00 -19°C° 0 mm 1 mps 747 mmHg 91%
09:00 -20°C° 0 mm 2 mps 748 mmHg 86%
10:00 -18°C° 0 mm 2 mps 748 mmHg 81%
11:00 -17°C° 0 mm 2 mps 748 mmHg 75%
12:00 -16°C° 0 mm 2 mps 748 mmHg 74%
13:00 -15°C° 0 mm 2 mps 749 mmHg 73%
14:00 -14°C° 0 mm 2 mps 749 mmHg 71%
15:00 -15°C° 0 mm 2 mps 749 mmHg 76%
16:00 -14°C° 0 mm 1 mps 749 mmHg 81%
17:00 -15°C° 0 mm 1 mps 749 mmHg 86%
18:00 -16°C° 0 mm 1 mps 750 mmHg 89%
19:00 -17°C° 0 mm 1 mps 750 mmHg 92%
20:00 -20°C° 0 mm 2 mps 751 mmHg 95%
21:00 -21°C° 0 mm 2 mps 751 mmHg 95%
22:00 -20°C° 0 mm 1 mps 751 mmHg 95%
23:00 -21°C° 0 mm 1 mps 751 mmHg 95%

10 March, Wednesday

Time Temperature Precipitation Wind Pressure Humidity
00:00 -22°C° 0 mm 1 mps 752 mmHg 95%
01:00 -22°C° 0 mm 1 mps 752 mmHg 95%
02:00 -23°C° 0 mm 1 mps 752 mmHg 95%
03:00 -23°C° 0 mm 1 mps 752 mmHg 94%
04:00 -23°C° 0 mm 1 mps 753 mmHg 94%
05:00 -23°C° 0 mm 1 mps 753 mmHg 93%
06:00 -22°C° 0 mm 1 mps 753 mmHg 89%
07:00 -21°C° 0 mm 1 mps 754 mmHg 85%
08:00 -20°C° 0 mm 1 mps 754 mmHg 81%
09:00 -18°C° 0 mm 1 mps 754 mmHg 75%
10:00 -16°C° 0 mm 1 mps 754 mmHg 69%
11:00 -13°C° 0 mm 1 mps 755 mmHg 63%
12:00 -12°C° 0 mm 1 mps 755 mmHg 62%
13:00 -12°C° 0 mm 1 mps 755 mmHg 61%
14:00 -11°C° 0 mm 1 mps 755 mmHg 60%
15:00 -12°C° 0 mm 1 mps 755 mmHg 67%
16:00 -13°C° 0 mm 1 mps 755 mmHg 74%
17:00 -13°C° 0 mm 1 mps 754 mmHg 81%
18:00 -14°C° 0 mm 1 mps 755 mmHg 84%
19:00 -16°C° 0 mm 0 mps 755 mmHg 86%
20:00 -17°C° 0 mm 0 mps 755 mmHg 88%
21:00 -17°C° 0 mm 0 mps 755 mmHg 89%
22:00 -17°C° 0 mm 0 mps 755 mmHg 89%
23:00 -17°C° 0 mm 0 mps 756 mmHg 90%

11 March, Thursday

Time Temperature Precipitation Wind Pressure Humidity
00:00 -18°C° 0 mm 0 mps 756 mmHg 90%
01:00 -18°C° 0 mm 0 mps 756 mmHg 91%
02:00 -18°C° 0 mm 0 mps 756 mmHg 91%
03:00 -18°C° 0 mm 0 mps 756 mmHg 92%
04:00 -18°C° 0 mm 0 mps 756 mmHg 92%
05:00 -18°C° 0 mm 1 mps 756 mmHg 92%
06:00 -17°C° 0 mm 1 mps 756 mmHg 90%
07:00 -16°C° 0 mm 1 mps 756 mmHg 88%
08:00 -16°C° 0 mm 1 mps 756 mmHg 85%
09:00 -14°C° 0 mm 1 mps 756 mmHg 81%
10:00 -14°C° 0 mm 2 mps 755 mmHg 77%
11:00 -12°C° 0 mm 2 mps 755 mmHg 73%
12:00 -12°C° 0 mm 2 mps 755 mmHg 70%
13:00 -12°C° 0 mm 3 mps 755 mmHg 67%
14:00 -10°C° 0 mm 3 mps 754 mmHg 64%
15:00 -12°C° 0 mm 3 mps 754 mmHg 68%
16:00 -13°C° 0 mm 3 mps 753 mmHg 72%
17:00 -14°C° 0 mm 3 mps 753 mmHg 77%
18:00 -15°C° 0 mm 3 mps 753 mmHg 79%
19:00 -16°C° 0 mm 4 mps 752 mmHg 82%
20:00 -17°C° 0 mm 4 mps 752 mmHg 84%
21:00 -17°C° 0 mm 4 mps 752 mmHg 84%
22:00 -17°C° 0 mm 4 mps 751 mmHg 84%
23:00 -18°C° 0 mm 4 mps 751 mmHg 85%

12 March, Friday

Time Temperature Precipitation Wind Pressure Humidity
00:00 -18°C° 0 mm 4 mps 750 mmHg 86%
01:00 -18°C° 0 mm 4 mps 750 mmHg 88%
02:00 -19°C° 0 mm 5 mps 749 mmHg 89%
03:00 -19°C° 0 mm 5 mps 749 mmHg 89%
04:00 -19°C° 0 mm 5 mps 748 mmHg 89%
05:00 -19°C° 0 mm 5 mps 747 mmHg 89%
06:00 -18°C° 0 mm 6 mps 747 mmHg 86%
07:00 -17°C° 0 mm 6 mps 746 mmHg 83%
08:00 -16°C° 0 mm 6 mps 745 mmHg 79%
09:00 -15°C° 0 mm 6 mps 745 mmHg 78%
10:00 -14°C° 0 mm 7 mps 744 mmHg 76%
11:00 -12°C° 0 mm 7 mps 744 mmHg 74%
12:00 -12°C° 0.1 mm 7 mps 743 mmHg 78%
13:00 -12°C° 0.1 mm 7 mps 742 mmHg 82%
14:00 -11°C° 0.1 mm 7 mps 741 mmHg 86%
15:00 -11°C° 0.3 mm 7 mps 741 mmHg 87%
16:00 -9°C° 0.3 mm 7 mps 740 mmHg 88%
17:00 -9°C° 0.3 mm 7 mps 740 mmHg 90%
18:00 -8°C° 0.3 mm 6 mps 739 mmHg 91%
19:00 -8°C° 0.3 mm 6 mps 739 mmHg 92%
20:00 -8°C° 0.3 mm 6 mps 738 mmHg 92%
21:00 -7°C° 0.2 mm 5 mps 738 mmHg 92%
22:00 -7°C° 0.2 mm 5 mps 737 mmHg 92%
23:00 -7°C° 0.2 mm 4 mps 737 mmHg 92%
Show more